sat.trackr.live / text

‹ back to catalog

KUIPER-00412

NORAD 68927 · 2026-098J

PAYLOAD ACTIVE UNKNOWN

§ Identity

Operator
Country
US
Launch date
2026-04-30
Launch site
FRGUI
Launch vehicle
Mass (kg)
RCS (m²)

External: N2YO · Heavens-Above · Gunter

§ Orbital elements

Epoch: 2026-09-19T23:01:28.066368Z

Period
97.30 min
Inclination
51.9040°
Eccentricity
0.0000241
Mean motion
14.79930276 rev/d
Perigee alt
629.4 km
Apogee alt
629.7 km
Semi-major
7,007.7 km
B*
1.5619e-4
RAAN
349.0986°
Arg perigee
135.1823°
Mean anomaly
224.9159°
Rev number
2,165

§ Raw data

KUIPER-004121 68927U 26098J   26262.95935262  .00000970  00000+0  15619-3 0  99962 68927  51.9040 349.0986 0000241 135.1823 224.9159 14.79930276 21656

JSON: /api/v1/satellites/68927 · /tle

For live sub-satellite position, see the globe view (requires WebGL).

§ Visibility from observer

Set your observer location to see the next 7 days of passes ≥ 10°. The values pass through the URL so the page stays shareable.

No JS? Fill the form by hand. The geolocation button needs JavaScript.